Flag for Canada Weather past 2 weeks in Prince George, British Columbia, Canada

Now
57 °F

Passing clouds.


Feels Like: 55 °F
Forecast: 46 / 60 °F
Wind: 10 mph from Southwest

Location: Prince George

Current Time: Oct 20, 2014 at 5:20:06 AM

Latest Report: Oct 20, 2014 at 4:00 AM


Visibility: 9 mi

Pressure: 29.51 "Hg

Humidity: 55%

Dew point: 41 °F

Location of Prince GeorgeLocation

Historic Weather in Prince George — Graph

°F

Prince George temperature yesterday

Maximum temperature yesterday: 68 °F (at 3:00 PM)
Minimum temperature yesterday: 55 °F (at 2:55 AM)
Average temperature yesterday: 61 °F

Past Weeks' High & Low Weather Summary

 TemperatureHumidityPressure
High68 °F (Oct 9, 4:00 PM)100% (Oct 5, 4:00 AM)30.14 "Hg (Oct 5, 4:00 AM)
Low28 °F (Oct 15, 4:56 AM)38% (Oct 19, 3:00 PM)29.42 "Hg (Oct 19, 5:00 PM)
Average49 °F78%29.82 "Hg
* Reported Oct 5 4:00 AM — Oct 20 4:00 AM, Prince George, Weather by CustomWeather, © 2014

Note: Actual official high and low records may vary slightly from our data, if they occured in-between our weather recording intervals... More about our weather records

Advertising

Prince George weather history for previous 24 hours

 ConditionsComfort  
Time TempWeatherWind HumidityBarometerVisibility
4:00 AM
Oct 20
57 °FPassing clouds.10 mph55%29.51 "Hg9 mi
3:00 AM57 °FPassing clouds.9 mph59%29.50 "Hg9 mi
2:00 AM59 °FMostly cloudy.8 mph59%29.49 "Hg9 mi
1:00 AM59 °FLight rain. Mostly cloudy.15 mph63%29.49 "Hg9 mi
12:59 AM59 °FLight rain. Mostly cloudy.15 mph63%29.49 "Hg9 mi
12:00 AM57 °FPartly cloudy.9 mph67%29.47 "Hg9 mi
11:00 PM
Oct 19
57 °FPassing clouds.14 mph72%29.48 "Hg9 mi
10:00 PM57 °FPassing clouds.13 mph72%29.48 "Hg9 mi
8:00 PM61 °FLight rain. Overcast.18 mph63%29.46 "Hg9 mi
7:00 PM66 °FMostly cloudy.16 mph43%29.44 "Hg9 mi
6:00 PM66 °FPartly sunny.21 mph43%29.43 "Hg9 mi
5:00 PM66 °FScattered clouds.18 mph43%29.42 "Hg9 mi
4:00 PM66 °FPassing clouds.28 mph40%29.43 "Hg9 mi
3:00 PM68 °FPassing clouds.29 mph38%29.44 "Hg9 mi
2:00 PM66 °FSunny.26 mph40%29.46 "Hg9 mi
1:00 PM64 °FScattered clouds.30 mph43%29.48 "Hg9 mi
12:00 PM64 °FPassing clouds.30 mph43%29.51 "Hg9 mi
11:00 AM61 °FPartly sunny.16 mph48%29.52 "Hg9 mi
10:00 AM61 °FPartly sunny.15 mph48%29.53 "Hg9 mi
9:00 AM59 °FMostly cloudy.14 mph51%29.55 "Hg9 mi
8:00 AM57 °FOvercast.12 mph55%29.56 "Hg9 mi
7:00 AM57 °FMostly cloudy.13 mph51%29.57 "Hg9 mi
6:00 AM57 °FPassing clouds.13 mph55%29.59 "Hg9 mi
5:00 AM57 °FPassing clouds.17 mph55%29.60 "Hg9 mi
Weather by CustomWeather, © 2014

See weather overviewHow to use our weather pages